World > North America > United States > New Jersey
Hourly regional weather for Brick, New JerseyBrick, New Jersey Regional Hourly Weather

Brick, New Jersey Regional Weather

regional weather brick, njHOURLY REGIONAL WEATHER FOR BRICK, NJ
Lat: 39.83N, Lon: 74.29W 
Web Search

Did you know? You can add this page to Bookmarks by pressing the Ctrl key & d key at the same time. Mac users press command & d.

Feedback


°F Click to change Brick hourly weather to Imperial units.Click to change Brick hourly weather to Metric units. °C
Brick Weather Map
UTC Time: 9/22/2021, 20:36
Your Time:

Brick, NJ Regional Weather

Expires:202109222100;;018282
ASUS41 KOKX 222014
RWROKX

Regional Weather Roundup
National Weather Service New York NY
400 PM EDT WED SEP 22 2021

Note: "FAIR" indicates few or no clouds below 12,000 feet with no
significant weather and/or obstructions to visibility.


NJZ001-105-106-008-010-013-015-019>022-104-222100-
New Jersey
  
CITY           SKY/WX    TMP DP  RH WIND       PRES   REMARKS
Newark/Liberty PTSUNNY   82  69  64 S10G22    30.01F                  
Teterboro      PTSUNNY   79  66  64 S15G23    30.00F                  
Caldwell       PTSUNNY   83  64  52 S16       30.01F                  
Somerville     MOSUNNY   80  66  62 SE8G20    29.96F                  
Linden         FAIR      82  64  56 S9        30.01F                  
Perth Amboy      N/A     79 N/A N/A SE16        N/A                   
Sussex         PTSUNNY   79  67  66 S10G20    29.99F                  
Andover          N/A     80  66  62 VRB7      29.99F                  
Trenton        MOSUNNY   80  68  66 S16G24    29.97F                  
Millville      PTSUNNY   79  70  74 SE17G28   29.97F                  
Atlantic City  PTSUNNY   79  72  78 SE16G26   30.00                   
Wrightstown    PTSUNNY   81  70  69 S18G28    29.98F                  
Toms River     CLOUDY    78  71  79 S17       30.01F                  
Belmar         MOSUNNY   78  72  81 SE12G24   30.03F                  
$$
 

SKY/WX - Weather  TMP - Temperature  DP - Dew Point  RH - Relative Humidity
WIND - Wind Direction/Speed PRES - Barometric Pressure VSB - Visibility
WCI - Wind Chill Index E13G22 Wind - East Wind 13 mph/Gusts of 22 mph